Regional Weather Roundup
Issued by NWS

Home | Current Version | Previous Version | Graphics & Text | Print | Product List | Glossary On
Versions: 1 2 3 4 5 6 7 8 9 10 11 12 13 14 15 16 17 18 19 20 21 22 23 24 25 26 27
000
ASUS45 KCYS 092010
RWRWY

WYOMING REGIONAL WEATHER ROUNDUP
NATIONAL WEATHER SERVICE CHEYENNE WY
100 PM MST FRI DEC 09 2016

NOTE:  "FAIR" INDICATES FEW OR NO CLOUDS BELOW 12,000 FEET
WITH NO SIGNIFICANT WEATHER AND/OR OBSTRUCTIONS TO VISIBILITY.

WYZ001-092100-
YELLOWSTONE NATIONAL PARK

CITY           SKY/WX    TMP DP  RH WIND       PRES   REMARKS
LK YELLOWSTONE   N/A     24  21  88 VRB3      30.02F
W YELLOWSTONE  NOT AVBL

$$
WYZ002>013-054>058-071-098>099-092100-
NORTHERN WYOMING

CITY           SKY/WX    TMP DP  RH WIND       PRES   REMARKS
JACKSON        LGT SNOW  21  19  93 CALM      30.05F
CODY           FAIR      10  -1  61 SE5       30.10F WCI   2
GREYBULL       FAIR      15   2  56 MISG      30.18F
WORLAND        CLOUDY    12   2  64 NE3       30.16F
SHERIDAN       FAIR       9   0  67 SE8       30.19F WCI  -3
BUFFALO        FAIR       8  -1  66 E3        30.13F
GILLETTE       FAIR       8   0  69 N3        30.17F
HULETT         CLOUDY     5  -2  72 CALM      30.20F
NEWCASTLE      FAIR      12   3  67 NW7       30.20F WCI   2

$$
WYZ014>020-022>026-101>103-092100-
CENTRAL WYOMING

CITY           SKY/WX    TMP DP  RH WIND       PRES   REMARKS
BIG PINEY      LGT SNOW  17  11  77 E5        30.12F WCI  10
PINEDALE       MOCLDY    19  14  79 CALM      30.13F
DUBOIS         LGT SNOW  32  23  69 NW16G22   29.98F WCI  21
LANDER         FAIR      16   4  59 SE3       30.05F
RIVERTON       FAIR      18   6  59 S5        30.06F WCI  11
CASPER         CLOUDY     7   1  76 CALM      30.10F
DOUGLAS        FAIR       9   1  70 W5        30.14F WCI   1

$$
WYZ021-027>030-104>119-092100-
SOUTHERN WYOMING

CITY           SKY/WX    TMP DP  RH WIND       PRES   REMARKS
EVANSTON       FAIR      37  30  75 SW16      30.14F WCI  28
KEMMERER         N/A     36  30  80 SW18G24   30.10F WCI  25
FORT BRIDGER   FAIR      41  32  70 W22G32    30.15F
ROCK SPRINGS   FAIR      36  29  75 W31G38    30.09F WCI  23
DIXON          CLOUDY    36  24  61 SW12      30.22F WCI  28
RAWLINS        FAIR      36  23  59 SW33G41   30.08S WCI  22
SARATOGA       CLOUDY    36  27  69 SW16G23   30.14S WCI  26
LARAMIE        PTSUNNY   36  24  62 W21G28    30.06F WCI  25
CHEYENNE       FAIR      46  25  43 W15G21    30.05S
TORRINGTON     FAIR      24   9  52 N5        30.15F WCI  18
PINE BLUFFS    FAIR      32  21  64 N8G18     30.09S WCI  25

$$




USA.gov is the U.S. government's official web portal to all federal, state and local government web resources and services.